TimeCDT,TemperatureF,Dew PointF,Humidity,Sea Level PressureIn,VisibilityMPH,Wind Direction,Wind SpeedMPH,Gust SpeedMPH,PrecipitationIn,Events,Conditions,WindDirDegrees,DateUTC
12:15 AM,62.6,41.0,45,30.00,10.0,NNW,18.4,25.3,N/A,,Clear,330,2012-10-01 05:15:00
12:35 AM,60.8,41.0,48,30.00,10.0,NNW,17.3,-,N/A,,Clear,330,2012-10-01 05:35:00
12:55 AM,60.8,41.0,48,30.01,10.0,NW,21.9,26.5,N/A,,Scattered Clouds,320,2012-10-01 05:55:00
1:15 AM,59.0,41.0,51,30.02,10.0,NNW,17.3,23.0,N/A,,Scattered Clouds,330,2012-10-01 06:15:00
1:35 AM,59.0,41.0,51,30.02,10.0,NNW,17.3,24.2,N/A,,Scattered Clouds,330,2012-10-01 06:35:00
1:55 AM,59.0,41.0,51,30.03,10.0,NNW,16.1,25.3,N/A,,Scattered Clouds,330,2012-10-01 06:55:00
2:35 AM,59.0,41.0,51,30.03,10.0,NNW,15.0,-,N/A,,Mostly Cloudy,330,2012-10-01 07:35:00
2:55 AM,59.0,42.8,55,30.04,10.0,NNW,13.8,18.4,N/A,,Mostly Cloudy,340,2012-10-01 07:55:00
3:35 AM,55.4,42.8,63,30.04,10.0,NNW,10.4,-,N/A,,Partly Cloudy,340,2012-10-01 08:35:00
3:55 AM,53.6,41.0,62,30.05,10.0,NNW,8.1,-,N/A,,Clear,330,2012-10-01 08:55:00
4:15 AM,55.4,42.8,63,30.05,10.0,NW,10.4,-,N/A,,Mostly Cloudy,320,2012-10-01 09:15:00
4:35 AM,57.2,44.6,63,30.05,10.0,NW,12.7,-,N/A,,Overcast,320,2012-10-01 09:35:00
4:55 AM,55.4,44.6,67,30.06,10.0,NW,12.7,-,N/A,,Mostly Cloudy,310,2012-10-01 09:55:00
5:15 AM,55.4,44.6,67,30.07,10.0,NW,15.0,-,N/A,,Mostly Cloudy,310,2012-10-01 10:15:00
5:35 AM,55.4,42.8,63,30.07,10.0,NW,15.0,21.9,N/A,,Mostly Cloudy,320,2012-10-01 10:35:00
6:15 AM,55.4,44.6,67,30.08,10.0,NW,16.1,20.7,N/A,,Overcast,310,2012-10-01 11:15:00
6:35 AM,53.6,44.6,72,30.08,10.0,NW,12.7,-,N/A,,Mostly Cloudy,310,2012-10-01 11:35:00
7:15 AM,53.6,41.0,62,30.09,10.0,NW,16.1,-,N/A,,Mostly Cloudy,320,2012-10-01 12:15:00
7:35 AM,51.8,41.0,67,30.10,10.0,NNW,13.8,-,N/A,,Overcast,330,2012-10-01 12:35:00
8:15 AM,50.0,41.0,71,30.11,10.0,NW,11.5,-,N/A,,Partly Cloudy,320,2012-10-01 13:15:00
8:35 AM,50.0,41.0,71,30.12,10.0,NW,17.3,-,N/A,,Clear,320,2012-10-01 13:35:00
8:55 AM,50.0,41.0,71,30.12,10.0,NW,12.7,-,N/A,,Clear,320,2012-10-01 13:55:00
9:15 AM,51.8,41.0,67,30.14,10.0,NW,16.1,20.7,N/A,,Clear,320,2012-10-01 14:15:00
9:35 AM,51.8,41.0,67,30.14,10.0,NW,16.1,-,N/A,,Clear,320,2012-10-01 14:35:00
10:15 AM,55.4,41.0,58,30.14,10.0,NNW,15.0,20.7,N/A,,Clear,340,2012-10-01 15:15:00
10:35 AM,57.2,41.0,55,30.14,10.0,NNW,15.0,-,N/A,,Clear,330,2012-10-01 15:35:00
10:55 AM,57.2,41.0,55,30.14,10.0,NW,16.1,20.7,N/A,,Clear,320,2012-10-01 15:55:00
11:15 AM,59.0,41.0,51,30.14,10.0,NNW,13.8,-,N/A,,Clear,330,2012-10-01 16:15:00
11:35 AM,60.8,41.0,48,30.14,10.0,NNW,12.7,16.1,N/A,,Clear,340,2012-10-01 16:35:00
11:55 AM,62.6,39.2,42,30.14,10.0,NNW,12.7,19.6,N/A,,Clear,340,2012-10-01 16:55:00
12:15 PM,62.6,39.2,42,30.14,10.0,NNW,12.7,17.3,N/A,,Clear,330,2012-10-01 17:15:00
12:35 PM,62.6,37.4,39,30.13,10.0,NW,15.0,-,N/A,,Clear,320,2012-10-01 17:35:00
12:55 PM,64.4,35.6,34,30.12,10.0,NW,18.4,24.2,N/A,,Clear,320,2012-10-01 17:55:00
1:15 PM,64.4,33.8,32,30.12,10.0,NW,16.1,21.9,N/A,,Clear,320,2012-10-01 18:15:00
1:35 PM,64.4,32.0,30,30.11,10.0,NNW,19.6,-,N/A,,Clear,340,2012-10-01 18:35:00
1:55 PM,66.2,32.0,28,30.10,10.0,NNW,12.7,20.7,N/A,,Clear,330,2012-10-01 18:55:00
2:15 PM,66.2,30.2,26,30.10,10.0,NNW,19.6,25.3,N/A,,Clear,340,2012-10-01 19:15:00
2:55 PM,66.2,28.4,24,30.08,10.0,NNW,17.3,20.7,N/A,,Clear,330,2012-10-01 19:55:00
3:15 PM,66.2,28.4,24,30.08,10.0,NNW,13.8,24.2,N/A,,Clear,340,2012-10-01 20:15:00
3:35 PM,66.2,28.4,24,30.08,10.0,NNW,19.6,24.2,N/A,,Clear,340,2012-10-01 20:35:00
3:55 PM,66.2,28.4,24,30.08,10.0,NNW,17.3,-,N/A,,Clear,330,2012-10-01 20:55:00
4:15 PM,66.2,28.4,24,30.07,10.0,North,16.1,-,N/A,,Clear,350,2012-10-01 21:15:00
4:35 PM,66.2,28.4,24,30.07,10.0,North,15.0,20.7,N/A,,Clear,350,2012-10-01 21:35:00
5:15 PM,66.2,26.6,23,30.06,10.0,NNW,13.8,-,N/A,,Clear,340,2012-10-01 22:15:00
5:35 PM,66.2,28.4,24,30.06,10.0,NNW,11.5,-,N/A,,Clear,340,2012-10-01 22:35:00
5:55 PM,66.2,28.4,24,30.06,10.0,NNW,11.5,-,N/A,,Clear,340,2012-10-01 22:55:00
6:15 PM,64.4,28.4,26,30.06,10.0,NNW,9.2,-,N/A,,Clear,340,2012-10-01 23:15:00
6:35 PM,62.6,28.4,27,30.05,10.0,NNW,9.2,-,N/A,,Clear,340,2012-10-01 23:35:00
6:55 PM,59.0,28.4,31,30.05,10.0,NNW,6.9,-,N/A,,Clear,340,2012-10-01 23:55:00
7:15 PM,57.2,28.4,33,30.05,10.0,North,5.8,-,N/A,,Clear,350,2012-10-02 00:15:00
7:35 PM,55.4,30.2,38,30.05,10.0,North,5.8,-,N/A,,Clear,360,2012-10-02 00:35:00
7:55 PM,53.6,28.4,38,30.04,10.0,Calm,Calm,-,N/A,,Clear,0,2012-10-02 00:55:00
8:15 PM,53.6,30.2,41,30.04,10.0,Calm,Calm,-,N/A,,Clear,0,2012-10-02 01:15:00
8:35 PM,51.8,32.0,47,30.03,10.0,Calm,Calm,-,N/A,,Clear,0,2012-10-02 01:35:00
8:55 PM,50.0,30.2,47,30.03,10.0,Calm,Calm,-,N/A,,Clear,0,2012-10-02 01:55:00
9:15 PM,48.2,30.2,50,30.04,10.0,SW,3.5,-,N/A,,Clear,220,2012-10-02 02:15:00
9:35 PM,46.4,28.4,50,30.03,10.0,Calm,Calm,-,N/A,,Clear,0,2012-10-02 02:35:00
9:55 PM,46.4,30.2,53,30.04,9.0,SSW,4.6,-,N/A,,Clear,210,2012-10-02 02:55:00
10:15 PM,44.6,30.2,57,30.03,10.0,Calm,Calm,-,N/A,,Clear,0,2012-10-02 03:15:00
10:35 PM,44.6,30.2,57,30.03,8.0,SSW,3.5,-,N/A,,Clear,210,2012-10-02 03:35:00
10:55 PM,41.0,30.2,65,30.02,10.0,SSW,4.6,-,N/A,,Clear,200,2012-10-02 03:55:00
11:15 PM,41.0,28.4,61,30.02,6.0,SSW,4.6,-,N/A,,Haze,200,2012-10-02 04:15:00
11:35 PM,41.0,28.4,61,30.01,5.0,South,4.6,-,N/A,,Haze,190,2012-10-02 04:35:00
11:55 PM,41.0,30.2,65,30.01,5.0,South,3.5,-,N/A,,Haze,190,2012-10-02 04:55:00